This demonstration page uses our WeatherBlox Daily Observations layout. Learn more.

Left ArrowRight Arrow

Hourly Observations for December 8, 2017

Temp ( °F °C ) Dew Point ( °F °C ) Humidity (%) Winds ( mph kmh ) Pressure ( in mb ) Visibility ( mi km ) Precip ( " mm )
12:53 am 00:53 Clear 28 -2.2 26 -3.3 92 92 W 7 11 30.38 1029 10 16 0.00 0.00
1:53 am 01:53 Clear 27 -2.8 25 -3.9 92 92 W 8 13 30.36 1028 10 16 0.00 0.00
2:53 am 02:53 Clear 26 -3.3 24 -4.4 92 92 W 6 9 30.35 1028 10 16 0.00 0.00
3:53 am 03:53 Clear 25 -3.9 22 -5.6 88 88 W 6 9 30.33 1027 10 16 0.00 0.00
4:53 am 04:53 Clear 24 -4.4 21 -6.1 88 88 WNW 6 9 30.32 1027 10 16 0.00 0.00
5:53 am 05:53 Clear 23 -5 21 -6.1 92 92 W 3 6 30.31 1026 10 16 0.00 0.00
6:53 am 06:53 Clear 26 -3.3 21 -6.1 81 81 NW 7 11 30.31 1026 10 16 0.00 0.00
7:53 am 07:53 Sunny 26 -3.3 21 -6.1 81 81 W 7 11 30.31 1027 10 16 0.00 0.00
8:53 am 08:53 Sunny 31 -0.6 24 -4.4 76 76 NW 8 13 30.30 1026 10 16 0.00 0.00
9:53 am 09:53 Mostly Cloudy 36 2.2 24 -4.4 62 62 WNW 9 15 30.29 1026 10 16 0.00 0.00
10:53 am 10:53 Sunny 39 3.9 23 -5 53 53 WNW 14 22 30.29 1026 10 16 0.00 0.00
11:53 am 11:53 Sunny 44 6.7 25 -3.9 47 47 W 16 26 30.25 1024 10 16 0.00 0.00
12:53 pm 12:53 Mostly Sunny 48 8.9 28 -2.2 46 46 W 20 31 30.19 1022 10 16 0.00 0.00
1:53 pm 13:53 Mostly Sunny 54 12.2 24 -4.4 31 31 NW 13 20 30.16 1021 10 16 0.00 0.00
2:53 pm 14:53 Partly Cloudy 54 12.2 24 -4.4 31 31 NW 17 28 30.15 1021 10 16 0.00 0.00
3:53 pm 15:53 Sunny 56 13.3 24 -4.4 29 29 NW 12 19 30.14 1021 10 16 0.00 0.00
4:53 pm 16:53 Sunny 54 12.2 23 -5 30 30 WNW 13 20 30.15 1021 10 16 0.00 0.00
5:53 pm 17:53 Clear 47 8.3 32 0 56 56 WSW 9 15 30.18 1022 10 16 0.00 0.00
6:53 pm 18:53 Clear 44 6.7 32 0 63 63 W 5 7 30.21 1023 10 16 0.00 0.00
7:53 pm 19:53 Clear 40 4.4 32 0 73 73 WSW 9 15 30.25 1024 10 16 0.00 0.00
8:53 pm 20:53 Clear 39 3.9 32 0 76 76 W 10 17 30.26 1025 10 16 0.00 0.00
9:53 pm 21:53 Clear 37 2.8 31 -0.6 79 79 WSW 9 15 30.27 1025 10 16 0.00 0.00
10:53 pm 22:53 Clear 36 2.2 31 -0.6 82 82 W 10 17 30.28 1025 10 16 0.00 0.00
11:53 pm 23:53 Clear 35 1.7 30 -1.1 82 82 W 8 13 30.28 1025 10 16 0.00 0.00

Powered by AerisWeather